FW4175 Weather Reports


Display with metric or nautical units.
time (UTC)temp
F
wind
direction
speed
MPH
gust
MPH
rain 1hr
in
rain 24hr
in
rain mn
in
humidity
%
barometer
mb
20260504201158 78 202 14.0 24.0 0.00 0.00 0.00 32 1000.2
20260504200655 78 202 9.0 25.0 0.00 0.00 0.00 32 1000.5
20260504200152 79 215 2.0 13.0 0.00 0.00 0.00 34 1000.6
20260504195647 78 196 6.0 17.0 0.00 0.00 0.00 32 1000.6
20260504195144 78 203 8.0 17.0 0.00 0.00 0.00 32 1000.9
20260504194641 77 205 10.0 22.0 0.00 0.00 0.00 31 1000.8
20260504194137 78 242 9.0 28.0 0.00 0.00 0.00 31 1000.9
20260504193633 78 189 11.0 20.0 0.00 0.00 0.00 30 1000.9
20260504193131 78 201 16.0 22.0 0.00 0.00 0.00 31 1000.8
20260504192629 77 199 10.0 22.0 0.00 0.00 0.00 31 1001.2
20260504192127 77 196 26.0 28.0 0.00 0.00 0.00 32 1001.1
20260504191625 77 195 9.0 25.0 0.00 0.00 0.00 32 1001.2
20260504191121 77 184 14.0 26.0 0.00 0.00 0.00 32 1001.2
20260504190617 77 221 13.0 24.0 0.00 0.00 0.00 33 1001.5
20260504190114 76 195 15.0 22.0 0.00 0.00 0.00 32 1001.3
20260504185610 77 179 9.0 21.0 0.00 0.00 0.00 32 1001.3
20260504185107 77 156 11.0 18.0 0.00 0.00 0.00 36 1001.3
20260504184603 77 229 16.0 23.0 0.00 0.00 0.00 32 1001.3
20260504184058 76 201 8.0 16.0 0.00 0.00 0.00 33 1001.5
20260504183555 76 183 8.0 22.0 0.00 0.00 0.00 33 1001.7
20260504183053 76 166 8.0 16.0 0.00 0.00 0.00 35 1001.3
20260504182550 75 184 11.0 23.0 0.00 0.00 0.00 32 1001.6
20260504182048 75 199 5.0 19.0 0.00 0.00 0.00 32 1001.3
20260504181544 75 173 14.0 24.0 0.00 0.00 0.00 32 1001.5
20260504181043 75 230 18.0 20.0 0.00 0.00 0.00 34 1001.3
20260504180541 75 210 14.0 23.0 0.00 0.00 0.00 34 1001.5
20260504180040 75 182 8.0 21.0 0.00 0.00 0.00 33 1001.5
20260504175537 75 167 18.0 25.0 0.00 0.00 0.00 34 1001.6
20260504175034 75 193 9.0 17.0 0.00 0.00 0.00 34 1001.7
20260504174532 74 197 11.0 22.0 0.00 0.00 0.00 34 1001.6
20260504174028 74 211 9.0 32.0 0.00 0.00 0.00 35 1002.0
20260504173525 75 192 19.0 19.0 0.00 0.00 0.00 35 1001.6
20260504173022 74 226 14.0 20.0 0.00 0.00 0.00 34 1001.6
20260504172518 74 201 6.0 22.0 0.00 0.00 0.00 34 1002.0
20260504172015 73 179 12.0 24.0 0.00 0.00 0.00 33 1002.0
20260504171512 74 222 10.0 23.0 0.00 0.00 0.00 35 1002.2
20260504171009 74 226 6.0 19.0 0.00 0.00 0.00 36 1002.5
20260504170505 74 214 15.0 21.0 0.00 0.00 0.00 35 1002.3
20260504160425 71 169 5.0 26.0 0.00 0.00 0.00 42 1003.2
20260504150849 69 191 8.0 18.0 0.00 0.00 0.00 43 1003.7
20260504150345 69 163 7.0 15.0 0.00 0.00 0.00 44 1003.6
20260504141315 66 192 8.0 15.0 0.00 0.00 0.00 44 1004.2
20260504140812 66 164 9.0 14.0 0.00 0.00 0.00 45 1004.4
20260504140308 66 195 13.0 15.0 0.00 0.00 0.00 45 1004.3
20260504130737 60 167 4.0 8.0 0.00 0.00 0.00 58 1005.1
20260504130232 60 173 8.0 9.0 0.00 0.00 0.00 58 1005.2
20260504120156 54 177 7.0 9.0 0.00 0.00 0.00 68 1005.1
20260504110624 50 174 4.0 8.0 0.00 0.00 0.00 78 1005.5
20260504110120 49 178 4.0 9.0 0.00 0.00 0.00 78 1005.2
20260504100545 50 160 4.0 9.0 0.00 0.00 0.00 81 1005.4
20260504081939 51 141 1.0 4.0 0.00 0.00 0.00 80 1005.4
20260504081436 51 156 3.0 5.0 0.00 0.00 0.00 79 1005.5
20260504080932 52 176 4.0 6.0 0.00 0.00 0.00 77 1005.5
20260504080429 52 187 2.0 8.0 0.00 0.00 0.00 78 1005.5
20260504070356 54 201 2.0 6.0 0.00 0.00 0.00 74 1006.2
20260504050744 59 189 5.0 8.0 0.00 0.00 0.00 66 1007.0
20260504050241 59 164 4.0 10.0 0.00 0.00 0.00 66 1007.1
20260504045738 58 160 2.0 9.0 0.00 0.00 0.00 66 1007.1
20260504045233 58 191 3.0 8.0 0.00 0.00 0.00 66 1006.9
20260504044731 58 183 3.0 8.0 0.00 0.00 0.00 66 1007.1
20260504044228 58 179 4.0 7.0 0.00 0.00 0.00 66 1006.9
20260504043725 59 187 5.0 17.0 0.00 0.00 0.00 66 1007.0
20260504043222 58 227 2.0 11.0 0.00 0.00 0.00 67 1007.1
20260504042720 58 201 3.0 5.0 0.00 0.00 0.00 67 1007.0
20260504042216 58 203 1.0 7.0 0.00 0.00 0.00 66 1007.1
20260504041712 58 173 4.0 8.0 0.00 0.00 0.00 66 1007.0
20260504041208 58 148 2.0 8.0 0.00 0.00 0.00 66 1007.0
20260504040704 59 143 4.0 9.0 0.00 0.00 0.00 65 1007.0
20260504040202 59 153 3.0 7.0 0.00 0.00 0.00 65 1007.0
20260504035658 59 163 5.0 7.0 0.00 0.00 0.00 65 1007.1
20260504035156 59 169 4.0 7.0 0.00 0.00 0.00 65 1007.1
20260504034653 59 148 5.0 9.0 0.00 0.00 0.00 64 1007.3
20260504034150 59 151 4.0 9.0 0.00 0.00 0.00 64 1007.3
20260504033648 60 174 4.0 9.0 0.00 0.00 0.00 63 1007.2
20260504033145 60 159 5.0 11.0 0.00 0.00 0.00 63 1007.4
20260504032641 60 146 4.0 7.0 0.00 0.00 0.00 63 1007.2
20260504032138 60 173 5.0 9.0 0.00 0.00 0.00 62 1007.3
20260504031635 60 167 4.0 7.0 0.00 0.00 0.00 62 1007.4
20260504031132 60 167 8.0 8.0 0.00 0.00 0.00 62 1007.3
20260504030628 60 159 5.0 9.0 0.00 0.00 0.00 61 1007.4
20260504030125 60 173 3.0 9.0 0.00 0.00 0.00 61 1007.3
20260504025622 60 185 3.0 10.0 0.00 0.00 0.00 61 1007.2
20260504025119 60 157 6.0 11.0 0.00 0.00 0.00 61 1007.8
20260504024616 60 186 3.0 7.0 0.00 0.00 0.00 61 1007.6
20260504024113 60 165 4.0 13.0 0.00 0.00 0.00 61 1007.3
20260504023609 59 163 3.0 6.0 0.00 0.00 0.00 62 1007.4
20260504023105 59 148 1.0 5.0 0.00 0.00 0.00 62 1007.5
20260504022602 60 151 3.0 4.0 0.00 0.00 0.00 62 1007.3
20260504022058 60 140 3.0 6.0 0.00 0.00 0.00 61 1007.3
20260504021556 60 144 3.0 5.0 0.00 0.00 0.00 62 1007.3
20260504021052 60 152 2.0 3.0 0.00 0.00 0.00 62 1007.5
20260504020549 60 154 3.0 4.0 0.00 0.00 0.00 61 1007.2
20260504020045 60 135 2.0 3.0 0.00 0.00 0.00 61 1007.1
20260504015542 60 142 2.0 3.0 0.00 0.00 0.00 61 1007.1
20260504015038 60 130 2.0 3.0 0.00 0.00 0.00 62 1007.2
20260504014534 60 131 2.0 2.0 0.00 0.00 0.00 61 1007.2
20260504014032 60 134 1.0 3.0 0.00 0.00 0.00 60 1007.3
20260504013529 61 129 1.0 2.0 0.00 0.00 0.00 60 1007.3
20260504013026 62 130 2.0 2.0 0.00 0.00 0.00 58 1007.1
20260504012524 63 134 2.0 2.0 0.00 0.00 0.00 56 1007.0
20260504012022 63 172 0.0 3.0 0.00 0.00 0.00 56 1007.0
20260504011518 63 181 1.0 4.0 0.00 0.00 0.00 55 1006.9
20260504011014 64 156 4.0 7.0 0.00 0.00 0.00 54 1006.9
20260504010510 64 167 4.0 6.0 0.00 0.00 0.00 53 1006.7
20260504010006 65 193 3.0 5.0 0.00 0.00 0.00 52 1006.7
20260504005503 65 204 3.0 7.0 0.00 0.00 0.00 52 1006.7
20260504005000 66 195 3.0 6.0 0.00 0.00 0.00 51 1006.8
20260504004458 65 164 7.0 8.0 0.00 0.00 0.00 50 1006.7
20260504003955 66 184 6.0 9.0 0.00 0.00 0.00 50 1006.7
20260504003450 66 195 3.0 12.0 0.00 0.00 0.00 51 1006.7
20260504002948 66 183 5.0 10.0 0.00 0.00 0.00 49 1006.8
20260504002445 67 192 4.0 7.0 0.00 0.00 0.00 49 1006.8
20260504001942 67 175 9.0 10.0 0.00 0.00 0.00 48 1007.0
20260504001439 67 170 5.0 8.0 0.00 0.00 0.00 48 1006.7
20260504000936 67 219 11.0 12.0 0.00 0.00 0.00 47 1006.7
20260504000433 68 190 6.0 14.0 0.00 0.00 0.00 47 1006.9
20260503235930 68 215 7.0 15.0 0.00 0.00 0.00 47 1006.8
20260503235428 68 222 6.0 14.0 0.00 0.00 0.00 47 1007.0
20260503234925 68 212 11.0 15.0 0.00 0.00 0.00 48 1007.0
20260503234422 68 201 14.0 15.0 0.00 0.00 0.00 46 1006.9
20260503233920 68 187 9.0 15.0 0.00 0.00 0.00 46 1006.8
20260503233417 68 183 6.0 18.0 0.00 0.00 0.00 47 1006.9
20260503232913 68 207 11.0 14.0 0.00 0.00 0.00 46 1007.0
20260503232410 68 165 6.0 19.0 0.00 0.00 0.00 45 1006.8
20260503231908 68 168 5.0 15.0 0.00 0.00 0.00 45 1006.8
20260503231405 68 218 17.0 18.0 0.00 0.00 0.00 44 1007.2
20260503230901 68 221 7.0 21.0 0.00 0.00 0.00 44 1007.1
20260503230358 68 209 12.0 18.0 0.00 0.00 0.00 45 1007.2
20260503225856 69 191 14.0 22.0 0.00 0.00 0.00 45 1007.0
20260503225351 69 197 8.0 20.0 0.00 0.00 0.00 45 1007.1
20260503224848 68 201 7.0 19.0 0.00 0.00 0.00 45 1007.0
20260503224345 68 177 13.0 21.0 0.00 0.00 0.00 45 1007.3
20260503223843 68 206 11.0 17.0 0.00 0.00 0.00 46 1007.0
20260503223341 68 177 5.0 26.0 0.00 0.00 0.00 45 1007.1
20260503222836 68 204 12.0 24.0 0.00 0.00 0.00 45 1007.0
20260503222335 67 142 11.0 23.0 0.00 0.00 0.00 45 1007.1
20260503221832 67 181 9.0 17.0 0.00 0.00 0.00 46 1007.3
20260503221331 67 153 15.0 24.0 0.00 0.00 0.00 47 1007.3
20260503220826 67 187 13.0 26.0 0.00 0.00 0.00 45 1007.1
20260503220323 67 173 11.0 21.0 0.00 0.00 0.00 46 1007.5
20260503215820 67 172 7.0 22.0 0.00 0.00 0.00 46 1007.5
20260503215318 67 178 11.0 16.0 0.00 0.00 0.00 47 1007.6
20260503214815 67 185 18.0 26.0 0.00 0.00 0.00 45 1007.3
20260503214312 66 184 13.0 28.0 0.00 0.00 0.00 46 1007.6
20260503213810 66 164 20.0 29.0 0.00 0.00 0.00 46 1007.8
20260503213307 66 219 12.0 27.0 0.00 0.00 0.00 46 1007.5
20260503212804 66 179 17.0 30.0 0.00 0.00 0.00 46 1007.8
20260503212302 66 205 11.0 25.0 0.00 0.00 0.00 46 1008.1
20260503211759 66 190 7.0 24.0 0.00 0.00 0.00 45 1008.1
20260503211255 66 198 8.0 36.0 0.00 0.00 0.00 46 1008.1
20260503210755 66 210 21.0 30.0 0.00 0.00 0.00 47 1008.2
20260503210253 66 196 6.0 20.0 0.00 0.00 0.00 46 1008.2
20260503205748 66 173 13.0 23.0 0.00 0.00 0.00 46 1008.2
20260503205245 65 197 8.0 33.0 0.00 0.00 0.00 45 1008.5
20260503204741 65 205 17.0 23.0 0.00 0.00 0.00 46 1008.4
20260503204239 66 164 15.0 20.0 0.00 0.00 0.00 45 1008.5
20260503203736 66 178 8.0 24.0 0.00 0.00 0.00 47 1008.8
20260503203234 64 180 11.0 23.0 0.00 0.00 0.00 50 1008.8
20260503202731 64 197 13.0 34.0 0.00 0.00 0.00 51 1008.9
20260503202229 65 160 4.0 21.0 0.00 0.00 0.00 52 1009.1
20260503201726 63 146 16.0 23.0 0.00 0.00 0.00 53 1009.1
20260503201224 63 163 16.0 27.0 0.00 0.00 0.00 54 1009.0